Hourly Data Report for July 30, 2016

OTTAWA INTL A
ONTARIO

45°19'00.000" N
75°40'00.000" W
114.90 m
6106001
71628
YOW

Download Data

Hourly Data (July 2016)
Hourly Data Report for July 30, 2016
TIME
LST
Temp Definition
°C
Dew Point Definition
°C
Rel Hum Definition
%
Precip. Amount Definition
mm

Wind Dir Definition
10's deg

Wind Spd Definition
km/h
Visibility Definition
km
Stn Press Definition
kPa
Hmdx Definition


Wind Chill Definition


Weather Definition


00:00 16.9 12.1 73   35 12 24.1 100.41     LegendNANA
01:00 16.0 12.4 79   35 10 24.1 100.42     Clear
02:00 14.4 12.3 87   1 9 24.1 100.42     LegendNANA
03:00 15.3 12.6 84   36 16 24.1 100.43     LegendNANA
04:00 13.9 12.0 88   2 7 24.1 100.44     Mainly Clear
05:00 14.5 12.7 89   1 10 24.1 100.46     LegendNANA
06:00 16.2 13.0 81   36 14 24.1 100.53     LegendNANA
07:00 18.5 13.0 70   1 13 24.1 100.58     Mainly Clear
08:00 20.5 13.3 63   4 14 24.1 100.59     LegendNANA
09:00 21.8 13.3 58   1 12 24.1 100.60 25   LegendNANA
10:00 23.8 11.7 46   1 11 24.1 100.61 26   Mainly Clear
11:00 24.4 11.2 43   7 8 24.1 100.60 26   LegendNANA
12:00 25.4 9.9 37   5 14 24.1 100.55 27   LegendNANA
13:00 25.2 9.7 37   10 11 24.1 100.55 26   Mostly Cloudy
14:00 26.2 10.6 37   6 10 24.1 100.51 28   LegendNANA
15:00 26.5 10.0 35   7 10 24.1 100.47 28   LegendNANA
16:00 26.5 10.5 36   5 10 24.1 100.43 28   Mainly Clear
17:00 26.3 10.7 37   5 8 24.1 100.42 28   LegendNANA
18:00 25.6 11.2 40   6 12 24.1 100.43 27   LegendNANA
19:00 23.4 11.6 47   9 10 24.1 100.46 25   Mostly Cloudy
20:00 20.1 11.7 58   11 6 24.1 100.51     LegendNANA
21:00 18.9 11.8 63   13 7 24.1 100.59     LegendNANA
22:00 16.9 11.0 68   11 9 24.1 100.60     Mainly Clear
23:00 18.6 12.2 66   10 8 24.1 100.58     LegendNANA

Notes on Data Quality.

Legend

  • E = Estimated
  • M = Missing
  • NA = Not Available*
  • [empty] = Indicates an unobserved value
Date modified: